Location: Newark
(53.3469°N, 7.1606°E)
Time: 02:11:25
(UTC+00:00)

N. Korean satellite - Pass Details

Date: 16 November 2019
Orbit: 455 x 507 km, 97.2° (Epoch: 14 December)

Event Time Altitude Azimuth Distance (km) Brightness Sun altitude
Rises 04:14:48 0° 29° (NNE) 2,627 10.7 -23.9°
Reaches altitude 10° 04:17:56 10° 58° (ENE) 1,731 10.1 -23.5°
Maximum altitude 04:19:43 13° 87° (E) 1,546 10.1 -23.2°
Drops below altitude 10° 04:21:29 10° 116° (ESE) 1,718 10.2 -23.0°
Sets 04:24:33 0° 145° (SE) 2,587 10.8 -22.5°
